Time,TemperatureF,DewpointF,PressureIn,WindDirection,WindDirectionDegrees,WindSpeedMPH,WindSpeedGustMPH,Humidity,HourlyPrecipIn,Conditions,Clouds,dailyrainin,SoftwareType,DateUTC
2013-02-16 00:08:00,23.1,15.0,30.20,NNW,348,0.0,-999.0,71,-99.99,,,0.00,weatherlink.com 1.10,2013-02-16 06:08:00,
2013-02-16 00:23:00,23.1,15.0,30.20,NNW,336,0.0,-999.0,72,-99.99,,,0.00,weatherlink.com 1.10,2013-02-16 06:23:00,
2013-02-16 00:38:00,22.9,14.0,30.20,NNW,347,0.0,-999.0,68,-99.99,,,0.00,weatherlink.com 1.10,2013-02-16 06:38:00,
2013-02-16 00:53:00,22.2,14.0,30.20,NNW,336,0.0,-999.0,71,-99.99,,,0.00,weatherlink.com 1.10,2013-02-16 06:53:00,
2013-02-16 01:08:00,21.1,12.0,30.20,NNW,331,0.0,-999.0,69,-99.99,,,0.00,weatherlink.com 1.10,2013-02-16 07:08:00,
2013-02-16 01:23:00,20.4,12.0,30.20,North,350,0.0,-999.0,71,-99.99,,,0.00,weatherlink.com 1.10,2013-02-16 07:23:00,
2013-02-16 01:38:00,19.8,12.0,30.20,North,360,0.0,-999.0,73,-99.99,,,0.00,weatherlink.com 1.10,2013-02-16 07:38:00,
2013-02-16 01:53:00,19.4,12.0,30.20,North,360,0.0,-999.0,74,-99.99,,,0.00,weatherlink.com 1.10,2013-02-16 07:53:00,
2013-02-16 02:08:00,19.0,13.0,30.20,NNW,348,0.0,-999.0,76,-99.99,,,0.00,weatherlink.com 1.10,2013-02-16 08:08:00,
2013-02-16 02:23:00,18.6,12.0,30.20,NNW,347,0.0,-999.0,76,-99.99,,,0.00,weatherlink.com 1.10,2013-02-16 08:23:00,
2013-02-16 02:38:00,18.3,12.0,30.19,NNW,345,0.0,-999.0,75,-99.99,,,0.00,weatherlink.com 1.10,2013-02-16 08:38:00,
2013-02-16 02:53:00,18.1,11.0,30.19,North,350,0.0,-999.0,75,-99.99,,,0.00,weatherlink.com 1.10,2013-02-16 08:53:00,
2013-02-16 03:08:00,17.7,11.0,30.19,NNW,347,0.0,-999.0,75,-99.99,,,0.00,weatherlink.com 1.10,2013-02-16 09:08:00,
2013-02-16 03:23:00,17.5,11.0,30.19,NNW,346,0.0,-999.0,75,-99.99,,,0.00,weatherlink.com 1.10,2013-02-16 09:23:00,
2013-02-16 03:38:00,17.3,11.0,30.19,NNW,346,0.0,-999.0,76,-99.99,,,0.00,weatherlink.com 1.10,2013-02-16 09:38:00,
2013-02-16 03:53:00,17.0,11.0,30.19,North,355,0.0,-999.0,76,-99.99,,,0.00,weatherlink.com 1.10,2013-02-16 09:53:00,
2013-02-16 04:08:00,16.7,10.0,30.19,NNW,348,0.0,-999.0,75,-99.99,,,0.00,weatherlink.com 1.10,2013-02-16 10:08:00,
2013-02-16 04:23:00,16.5,10.0,30.19,NNW,348,0.0,-999.0,74,-99.99,,,0.00,weatherlink.com 1.10,2013-02-16 10:23:00,
2013-02-16 04:38:00,16.3,10.0,30.19,North,355,0.0,-999.0,75,-99.99,,,0.00,weatherlink.com 1.10,2013-02-16 10:38:00,
2013-02-16 04:53:00,16.0,9.0,30.19,North,355,0.0,-999.0,74,-99.99,,,0.00,weatherlink.com 1.10,2013-02-16 10:53:00,
2013-02-16 05:08:00,15.7,9.0,30.19,North,355,0.0,-999.0,75,-99.99,,,0.00,weatherlink.com 1.10,2013-02-16 11:08:00,
2013-02-16 05:23:00,15.5,9.0,30.20,NNW,344,0.0,-999.0,74,-99.99,,,0.00,weatherlink.com 1.10,2013-02-16 11:23:00,
2013-02-16 05:38:00,15.3,9.0,30.20,North,349,0.0,-999.0,75,-99.99,,,0.00,weatherlink.com 1.10,2013-02-16 11:38:00,
2013-02-16 05:53:00,15.1,9.0,30.20,NNW,335,0.0,-999.0,76,-99.99,,,0.00,weatherlink.com 1.10,2013-02-16 11:53:00,
2013-02-16 06:08:00,15.0,8.0,30.19,NNW,346,0.0,-999.0,75,-99.99,,,0.00,weatherlink.com 1.10,2013-02-16 12:08:00,
2013-02-16 06:23:00,14.8,9.0,30.20,North,350,0.0,-999.0,76,-99.99,,,0.00,weatherlink.com 1.10,2013-02-16 12:23:00,
2013-02-16 06:38:00,14.8,9.0,30.20,NNW,333,0.0,-999.0,76,-99.99,,,0.00,weatherlink.com 1.10,2013-02-16 12:38:00,
2013-02-16 06:53:00,14.6,9.0,30.21,NNW,339,0.0,-999.0,77,-99.99,,,0.00,weatherlink.com 1.10,2013-02-16 12:53:00,
2013-02-16 07:08:00,14.6,9.0,30.21,NW,325,0.0,-999.0,78,-99.99,,,0.00,weatherlink.com 1.10,2013-02-16 13:08:00,
2013-02-16 07:23:00,14.9,9.0,30.21,NNW,331,0.0,-999.0,77,-99.99,,,0.00,weatherlink.com 1.10,2013-02-16 13:23:00,
2013-02-16 07:38:00,15.4,9.0,30.21,NNW,346,0.0,-999.0,76,-99.99,,,0.00,weatherlink.com 1.10,2013-02-16 13:38:00,
2013-02-16 07:53:00,15.7,9.0,30.22,NW,324,0.0,-999.0,75,-99.99,,,0.00,weatherlink.com 1.10,2013-02-16 13:53:00,
2013-02-16 08:08:00,16.1,9.0,30.22,NW,325,0.0,-999.0,74,-99.99,,,0.00,weatherlink.com 1.10,2013-02-16 14:08:00,
2013-02-16 08:23:00,16.8,9.0,30.22,NNW,341,0.0,-999.0,72,-99.99,,,0.00,weatherlink.com 1.10,2013-02-16 14:23:00,
2013-02-16 08:38:00,17.3,10.0,30.22,NNW,333,0.0,-999.0,72,-99.99,,,0.00,weatherlink.com 1.10,2013-02-16 14:38:00,
2013-02-16 08:53:00,18.0,10.0,30.22,NNW,335,0.0,-999.0,70,-99.99,,,0.00,weatherlink.com 1.10,2013-02-16 14:53:00,
2013-02-16 09:08:00,18.4,9.0,30.22,North,360,0.0,-999.0,68,-99.99,,,0.00,weatherlink.com 1.10,2013-02-16 15:08:00,
2013-02-16 09:23:00,19.4,10.0,30.22,NNW,346,0.0,-999.0,68,-99.99,,,0.00,weatherlink.com 1.10,2013-02-16 15:23:00,
2013-02-16 09:38:00,19.9,10.0,30.22,NNW,340,0.0,-999.0,65,-99.99,,,0.00,weatherlink.com 1.10,2013-02-16 15:38:00,
2013-02-16 09:53:00,20.3,9.0,30.22,NNW,335,0.0,-999.0,61,-99.99,,,0.00,weatherlink.com 1.10,2013-02-16 15:53:00,
2013-02-16 10:08:00,20.9,9.0,30.22,North,355,0.0,-999.0,61,-99.99,,,0.00,weatherlink.com 1.10,2013-02-16 16:08:00,
2013-02-16 10:23:00,21.5,9.0,30.21,NW,306,0.0,-999.0,59,-99.99,,,0.00,weatherlink.com 1.10,2013-02-16 16:23:00,
2013-02-16 10:38:00,21.5,9.0,30.21,NW,321,0.0,-999.0,59,-99.99,,,0.00,weatherlink.com 1.10,2013-02-16 16:38:00,
2013-02-16 10:53:00,22.5,10.0,30.21,NNW,339,0.0,-999.0,58,-99.99,,,0.00,weatherlink.com 1.10,2013-02-16 16:53:00,
2013-02-16 11:08:00,22.4,10.0,30.21,NW,308,0.0,-999.0,59,-99.99,,,0.00,weatherlink.com 1.10,2013-02-16 17:08:00,
2013-02-16 11:23:00,22.6,11.0,30.20,NNW,327,0.0,-999.0,60,-99.99,,,0.00,weatherlink.com 1.10,2013-02-16 17:23:00,
2013-02-16 11:38:00,22.2,10.0,30.20,NNW,327,0.0,-999.0,59,-99.99,,,0.00,weatherlink.com 1.10,2013-02-16 17:38:00,
2013-02-16 11:53:00,23.4,12.0,30.19,NW,326,0.0,-999.0,62,-99.99,,,0.00,weatherlink.com 1.10,2013-02-16 17:53:00,
2013-02-16 12:08:00,22.7,11.0,30.18,NW,323,0.0,-999.0,61,-99.99,,,0.00,weatherlink.com 1.10,2013-02-16 18:08:00,
2013-02-16 12:23:00,23.0,11.0,30.18,NNW,333,0.0,-999.0,60,-99.99,,,0.00,weatherlink.com 1.10,2013-02-16 18:23:00,
2013-02-16 12:38:00,24.1,12.0,30.17,NW,312,0.0,-999.0,60,-99.99,,,0.00,weatherlink.com 1.10,2013-02-16 18:38:00,
2013-02-16 12:53:00,24.3,12.0,30.17,NW,320,0.0,-999.0,59,-99.99,,,0.00,weatherlink.com 1.10,2013-02-16 18:53:00,
2013-02-16 13:08:00,23.7,12.0,30.16,WNW,290,0.0,-999.0,61,-99.99,,,0.00,weatherlink.com 1.10,2013-02-16 19:08:00,
2013-02-16 13:23:00,24.3,12.0,30.16,NW,317,0.0,-999.0,61,-99.99,,,0.00,weatherlink.com 1.10,2013-02-16 19:23:00,
2013-02-16 13:38:00,24.2,12.0,30.16,NW,314,0.0,-999.0,61,-99.99,,,0.00,weatherlink.com 1.10,2013-02-16 19:38:00,
2013-02-16 13:53:00,24.5,12.0,30.15,NW,319,0.0,-999.0,59,-99.99,,,0.00,weatherlink.com 1.10,2013-02-16 19:53:00,
2013-02-16 14:08:00,24.3,12.0,30.15,NNW,328,0.0,-999.0,61,-99.99,,,0.00,weatherlink.com 1.10,2013-02-16 20:08:00,
2013-02-16 14:23:00,24.5,13.0,30.15,NNW,331,0.0,-999.0,63,-99.99,,,0.00,weatherlink.com 1.10,2013-02-16 20:23:00,
2013-02-16 14:38:00,24.6,12.0,30.15,NW,305,0.0,-999.0,60,-99.99,,,0.00,weatherlink.com 1.10,2013-02-16 20:38:00,
2013-02-16 14:53:00,24.5,13.0,30.15,NW,321,0.0,-999.0,61,-99.99,,,0.00,weatherlink.com 1.10,2013-02-16 20:53:00,
2013-02-16 15:08:00,25.1,14.0,30.15,WNW,300,0.0,-999.0,62,-99.99,,,0.00,weatherlink.com 1.10,2013-02-16 21:08:00,
2013-02-16 15:23:00,24.5,13.0,30.15,NW,324,0.0,-999.0,62,-99.99,,,0.00,weatherlink.com 1.10,2013-02-16 21:23:00,
2013-02-16 15:38:00,24.4,12.0,30.15,NNW,344,0.0,-999.0,60,-99.99,,,0.00,weatherlink.com 1.10,2013-02-16 21:38:00,
2013-02-16 15:53:00,24.5,13.0,30.16,North,355,0.0,-999.0,61,-99.99,,,0.00,weatherlink.com 1.10,2013-02-16 21:53:00,
2013-02-16 16:08:00,23.7,13.0,30.16,North,5,0.0,-999.0,64,-99.99,,,0.00,weatherlink.com 1.10,2013-02-16 22:08:00,
2013-02-16 16:23:00,23.1,13.0,30.16,NNW,348,0.0,-999.0,64,-99.99,,,0.00,weatherlink.com 1.10,2013-02-16 22:23:00,
2013-02-16 16:38:00,22.8,13.0,30.16,North,350,0.0,-999.0,65,-99.99,,,0.00,weatherlink.com 1.10,2013-02-16 22:38:00,
2013-02-16 16:53:00,22.2,12.0,30.16,North,349,0.0,-999.0,65,-99.99,,,0.00,weatherlink.com 1.10,2013-02-16 22:53:00,
2013-02-16 17:08:00,21.5,12.0,30.17,NE,35,0.0,-999.0,66,-99.99,,,0.00,weatherlink.com 1.10,2013-02-16 23:08:00,
2013-02-16 17:23:00,20.7,12.0,30.17,North,5,0.0,-999.0,68,-99.99,,,0.00,weatherlink.com 1.10,2013-02-16 23:23:00,
2013-02-16 17:38:00,20.0,11.0,30.18,NNE,17,0.0,-999.0,68,-99.99,,,0.00,weatherlink.com 1.10,2013-02-16 23:38:00,
2013-02-16 17:53:00,19.3,11.0,30.18,North,5,0.0,-999.0,69,-99.99,,,0.00,weatherlink.com 1.10,2013-02-16 23:53:00,
2013-02-16 18:08:00,18.7,10.0,30.19,North,351,0.0,-999.0,69,-99.99,,,0.00,weatherlink.com 1.10,2013-02-17 00:08:00,
2013-02-16 18:23:00,18.4,10.0,30.20,North,5,0.0,-999.0,69,-99.99,,,0.00,weatherlink.com 1.10,2013-02-17 00:23:00,
2013-02-16 18:38:00,18.2,10.0,30.20,North,9,0.0,-999.0,69,-99.99,,,0.00,weatherlink.com 1.10,2013-02-17 00:38:00,
2013-02-16 18:54:00,18.0,9.0,30.20,North,360,0.0,-999.0,68,-99.99,,,0.00,weatherlink.com 1.10,2013-02-17 00:54:00,
2013-02-16 19:08:00,17.6,9.0,30.21,North,360,0.0,-999.0,69,-99.99,,,0.00,weatherlink.com 1.10,2013-02-17 01:08:00,
2013-02-16 19:24:00,17.2,9.0,30.21,North,5,0.0,-999.0,70,-99.99,,,0.00,weatherlink.com 1.10,2013-02-17 01:24:00,
2013-02-16 19:39:00,16.9,8.0,30.22,North,5,0.0,-999.0,69,-99.99,,,0.00,weatherlink.com 1.10,2013-02-17 01:39:00,
2013-02-16 19:54:00,16.8,9.0,30.22,North,9,0.0,-999.0,70,-99.99,,,0.00,weatherlink.com 1.10,2013-02-17 01:54:00,
2013-02-16 20:09:00,16.4,8.0,30.22,North,9,0.0,-999.0,70,-99.99,,,0.00,weatherlink.com 1.10,2013-02-17 02:09:00,
2013-02-16 20:24:00,16.0,8.0,30.23,North,9,0.0,-999.0,70,-99.99,,,0.00,weatherlink.com 1.10,2013-02-17 02:24:00,
2013-02-16 20:39:00,15.7,8.0,30.23,NNE,19,0.0,-999.0,70,-99.99,,,0.00,weatherlink.com 1.10,2013-02-17 02:39:00,
2013-02-16 20:54:00,15.5,7.0,30.23,NNE,18,0.0,-999.0,70,-99.99,,,0.00,weatherlink.com 1.10,2013-02-17 02:54:00,
2013-02-16 21:09:00,15.1,7.0,30.23,NNE,18,0.0,-999.0,70,-99.99,,,0.00,weatherlink.com 1.10,2013-02-17 03:09:00,
2013-02-16 21:24:00,14.9,7.0,30.23,NNE,18,0.0,-999.0,71,-99.99,,,0.00,weatherlink.com 1.10,2013-02-17 03:24:00,
2013-02-16 21:39:00,14.5,7.0,30.23,NNE,18,0.0,-999.0,72,-99.99,,,0.00,weatherlink.com 1.10,2013-02-17 03:39:00,
2013-02-16 21:54:00,14.2,7.0,30.23,NNE,18,0.0,-999.0,73,-99.99,,,0.00,weatherlink.com 1.10,2013-02-17 03:54:00,
2013-02-16 22:09:00,13.9,7.0,30.23,NNE,18,0.0,-999.0,74,-99.99,,,0.00,weatherlink.com 1.10,2013-02-17 04:09:00,
2013-02-16 22:24:00,13.7,7.0,30.23,NNE,18,0.0,-999.0,75,-99.99,,,0.00,weatherlink.com 1.10,2013-02-17 04:24:00,
2013-02-16 22:39:00,13.4,7.0,30.23,NNE,18,0.0,-999.0,76,-99.99,,,0.00,weatherlink.com 1.10,2013-02-17 04:39:00,
2013-02-16 22:54:00,12.9,7.0,30.23,NNE,18,0.0,-999.0,76,-99.99,,,0.00,weatherlink.com 1.10,2013-02-17 04:54:00,
2013-02-16 23:09:00,12.4,7.0,30.23,NNE,18,0.0,-999.0,77,-99.99,,,0.00,weatherlink.com 1.10,2013-02-17 05:09:00,
2013-02-16 23:24:00,11.6,7.0,30.23,NNE,18,0.0,-999.0,80,-99.99,,,0.00,weatherlink.com 1.10,2013-02-17 05:24:00,
2013-02-16 23:39:00,11.8,7.0,30.22,NNE,18,0.0,-999.0,79,-99.99,,,0.00,weatherlink.com 1.10,2013-02-17 05:39:00,